User: anonymous   Login
Location: Étouvelles
(49.5207°N, 3.5808°E)
Time: 20:55:58
(UTC+00:00)
Language:

FENGYUN 1C DEB - Orbit

View from above orbital plane
View from above orbital plane
View from above satellite
View from above satellite

Ground track
Ground track

The orbit data is extracted from the following two-line orbital elements,

1 38506U 99025ESR 23322.02838793  .00008894  00000-0  38874-2 0  9990
2 38506  98.9871 253.5290 0154346 268.9935  89.3553 14.17860789666616
Epoch (UTC): 18 November 2023 00:40:52
Eccentricity: 0.0154346
inclination: 98.9871°
perigee height: 721 km
apogee height: 944 km
right ascension of ascending node: 253.5290°
argument of perigee: 268.9935°
revolutions per day: 14.17860789
mean anomaly at epoch: 89.3553°
orbit number at epoch: 66661

The dashed part of the orbit path shows where the satellite is in the earth's shadow,  

DLR